星链-2482 (STARLINK-2482 )

导读

STARLINK-2482是美国太空探索技术公司于2021年4月7日发射的星链卫星,隶属于星链互联网卫星星座项目。星链项目旨在通过大规模低轨卫星星座,为全球用户提供高速低延迟的互联网接入服务。截至当前,该卫星已在轨运行近五年,是星链星座中承担全球网络覆盖的成员之一。

Basic Information
目录编号:
48139
目录名称:
STARLINK-2482
国际标识:
2021-027AZ
轨道中心:
EARTH
卫星名称:
星链-2482
卫星全名:
星链-2482 (STARLINK-2482 )
卫星状态:
在轨 (已飞行1976 天)
发射日期:
2021-04-07 UTC
国别 :
美国 (US)
星等 :
--
Orbit Information
数据来源 国际轨道数据
星历时间: 2026-09-02T06:59:57+0800
2天前
查看轨道信息
半长轴: 6848.823km
偏心率: 0.0001101
轨道倾角: 53.159°
近地点辐角 87.563°
升交点赤经 52.443°
平近点角 272.550°
近地点: 469.931km
远地点: 471.441km
周期: 94.012分钟
每日圈数: 15.317184
Detailed Information
固有亮度:
5
最大亮度:
2.5
卫星平台:
Starlink V1.0
覆盖范围:
全球
运营商:
太空探索技术公司
运营商所在国:
美国
制造商(研发单位):
太空探索技术公司
制造商所在国:
美国
使用方式:
暂无
Satellite Introduction
星链(Starlink)计划是由太空探索技术公司(SpaceX)提出的一个巨型低轨卫星互联网星座项目,计划在2019年至2024年间在太空搭建由约1.2万颗卫星组成的“星链”网络,其中1584颗将部署在地球上空550千米处的近地轨道,并从2020年开始工作。该卫星仍在工作。
2D Orbit Map
3D Orbit Map
Orbit Altitude Analysis Chart
Orbit Inclination Analysis Chart
Orbit Comprehensive Analysis Chart
View Comprehensive Chart
Conjunction Data List
Event ID Objects TCA Miss Dist (km) Collision Risk Probability Collision Risk Index (CRI) Action
CDM_260902-164604-813905-941323
2026-09-02T
16:46:38+0000
0.637 km
远距离
7.065758E-5 中风险 0.72
CDM_260903-231204-813905-316321
2026-09-03T
23:12:11+0000
1.861 km
极远距离
1.522616E-6 低风险 0.39
CDM_260904-185404-813906-770021
2026-09-04T
18:54:02+0000
2.676 km
极远距离
1.056532E-6 低风险 0.35